Wind_Speed
56 56 58 57 55 52 51 52 55 55 53 52 50 46 43 44 41 36 39 47 51 51 51 50 50 49 47 48 46 40 38 40 40 39 36 32 31 32 30 28 27 26 23 20 18 17 16 15 14 14 17 20 23 26 29 29 29 28 29 30 31 32 32
46 50 57 59 59 56 47 40 46 53 53 52 53 51 47 48 47 39 35 38 43 49 52 52 51 48 45 46 48 43 39 42 44 42 39 35 33 32 31 29 29 29 26 23 21 19 18 17 15 15 16 20 22 25 28 29 29 29 29 30 31 32 33
41 41 47 51 55 61 53 31 28 42 51 54 57 55 51 50 49 44 40 41 41 42 48 52 51 47 44 42 42 41 39 43 45 44 42 40 37 35 33 32 32 32 30 28 25 22 20 19 18 17 17 19 21 23 26 28 29 29 30 32 33 33 34
43 33 34 41 46 56 60 45 29 29 37 44 53 58 57 53 49 40 35 42 48 45 44 48 47 45 43 41 38 37 38 40 44 46 44 42 40 38 35 33 33 32 30 29 26 23 21 21 20 19 17 17 19 22 25 27 29 30 31 32 33 34 34
45 37 33 39 42 41 48 55 48 35 32 35 41 53 59 57 54 45 31 32 40 42 45 49 49 45 42 40 36 34 34 38 43 46 44 43 42 41 38 35 35 33 31 29 28 25 23 23 22 21 19 18 19 21 24 26 29 30 30 30 32 33 35
40 40 34 36 40 34 33 48 57 47 38 34 34 45 57 59 59 54 40 27 20 21 28 37 47 49 43 37 35 33 33 36 43 46 42 42 43 41 40 38 37 36 33 31 29 27 25 25 24 22 20 19 18 19 21 25 28 29 30 30 30 32 34
39 37 32 34 39 34 27 35 48 48 38 32 31 36 45 52 56 57 50 34 22 20 20 20 31 45 47 40 35 33 33 36 42 44 41 41 43 42 41 39 37 36 34 32 31 30 28 26 24 23 21 20 18 17 19 22 26 29 30 30 30 31 33
44 41 39 43 46 43 37 35 41 46 42 34 32 29 28 34 42 49 52 43 31 28 28 24 29 37 41 42 38 33 33 37 40 41 41 41 41 42 43 40 37 35 34 33 33 33 31 27 24 24 23 21 20 19 19 20 23 28 30 31 31 31 32
46 46 45 46 48 47 46 41 39 47 49 41 35 30 27 32 36 36 38 41 39 34 29 30 39 43 37 37 38 35 35 37 37 37 40 40 41 44 44 41 39 38 37 35 34 33 31 27 25 26 25 24 22 21 20 19 21 26 30 32 31 31 31
47 46 45 45 45 44 47 46 41 44 49 46 39 34 33 38 44 41 32 30 34 36 29 26 33 39 36 33 35 36 37 39 37 37 37 37 40 44 43 41 42 41 40 38 37 35 31 27 27 28 27 27 25 23 22 21 21 24 29 32 32 31 31
51 47 46 48 50 48 48 48 43 39 41 43 43 44 41 39 44 48 43 33 30 31 31 29 30 33 33 31 31 32 35 39 40 41 40 39 42 45 44 44 45 42 40 40 39 36 32 31 31 30 30 30 28 26 24 23 22 22 26 30 32 32 32
54 51 48 48 52 54 51 51 49 46 44 43 44 52 53 45 42 48 48 42 36 33 28 27 32 35 33 31 31 30 30 36 42 45 44 42 44 45 43 42 44 42 39 37 37 37 35 34 34 32 32 32 31 28 27 26 24 22 24 27 30 32 32
57 55 53 50 51 54 55 54 54 54 54 50 46 51 57 52 49 54 53 45 40 38 30 22 26 34 36 36 39 38 36 42 48 49 46 42 42 43 41 41 42 42 40 38 38 38 37 37 35 34 33 33 32 30 28 27 25 23 23 25 28 32 33
61 59 57 56 54 54 56 56 55 54 55 57 54 53 57 57 57 58 55 48 45 44 39 29 26 32 35 37 42 44 42 45 48 48 45 42 42 44 44 44 44 43 43 42 41 40 39 38 37 36 35 33 32 32 30 28 26 24 23 23 25 29 32
59 60 59 59 58 57 56 55 54 53 52 57 61 61 61 63 63 60 54 53 53 48 43 37 31 30 32 36 43 46 43 43 46 48 48 47 48 50 51 51 51 48 47 45 43 42 41 40 38 37 35 33 32 32 31 29 27 25 23 22 22 25 30
57 58 59 59 58 58 60 57 54 54 53 55 61 66 69 69 67 62 57 59 58 50 46 47 44 36 32 34 43 48 44 42 44 46 48 50 52 53 52 53 53 51 50 48 45 44 42 41 39 37 36 34 34 34 33 30 28 26 24 22 21 23 27
53 55 57 59 58 59 64 61 55 52 54 57 60 64 69 70 68 66 64 63 60 55 54 59 58 50 39 33 38 46 44 41 41 44 47 51 52 52 50 51 51 50 49 48 47 44 43 42 39 37 35 34 33 33 33 32 30 29 26 24 24 24 25
46 52 55 57 60 62 64 62 56 53 54 56 58 61 66 69 69 70 69 64 59 60 62 63 61 61 55 43 38 43 44 41 42 45 47 50 53 54 52 52 52 51 49 48 47 45 44 43 40 37 36 34 32 33 34 34 33 31 29 27 26 25 24
38 45 50 55 60 61 60 60 57 55 55 55 55 58 64 67 68 72 74 70 66 68 70 62 55 57 59 53 44 42 44 45 45 47 49 51 54 55 53 52 52 52 51 50 48 47 46 43 41 39 37 36 34 34 36 36 35 33 31 30 29 27 26
31 37 43 50 57 58 56 56 57 56 56 56 55 57 60 64 68 71 73 72 69 68 69 65 57 52 52 50 46 44 46 48 46 47 50 53 54 54 53 52 53 53 51 50 49 48 46 44 42 40 38 37 36 35 35 37 36 35 34 33 31 29 28
29 32 34 39 47 53 55 55 57 59 56 54 55 56 57 62 66 66 66 69 68 63 60 60 61 59 54 48 46 48 49 49 46 45 48 51 53 55 56 56 56 55 54 52 52 50 47 45 44 41 39 39 38 36 35 37 38 37 36 35 33 30 28
31 31 32 33 39 50 57 57 58 59 55 51 53 54 54 57 62 63 63 66 69 66 58 54 59 64 62 55 51 50 49 48 47 45 45 48 52 56 58 58 58 58 57 56 54 51 48 46 45 43 41 41 39 38 37 36 37 37 36 35 33 30 29
34 34 34 34 37 46 54 56 57 57 55 52 53 54 55 55 58 64 66 65 67 67 59 53 57 63 65 62 57 52 49 48 47 45 44 46 51 56 59 60 60 60 59 57 54 52 50 47 46 45 44 42 41 40 38 36 36 37 36 35 33 30 29
35 36 34 33 34 41 49 54 55 55 56 55 52 54 57 54 51 58 66 66 65 65 59 54 58 63 65 64 59 53 50 48 47 46 45 45 48 54 59 61 60 60 59 57 54 53 51 49 47 47 47 45 43 41 39 37 36 34 33 33 32 31 31
35 36 35 33 34 37 43 50 54 56 57 58 53 50 53 54 49 50 59 64 65 64 60 56 57 61 63 63 60 55 53 50 48 47 46 46 47 50 55 59 60 60 58 56 54 53 52 50 50 49 49 47 45 43 41 38 34 32 31 33 33 33 33
33 35 35 35 36 37 40 45 52 55 56 58 57 51 49 53 52 47 50 59 64 65 63 60 58 58 60 61 60 58 54 51 49 48 47 46 46 47 51 56 59 59 58 55 53 51 51 50 50 51 51 49 46 45 42 37 34 33 33 34 34 34 33
31 34 36 36 37 37 37 41 47 53 56 58 58 54 50 53 55 49 45 50 60 65 65 63 60 59 59 59 59 59 55 51 49 49 48 46 45 46 48 52 56 57 57 54 53 51 49 49 50 52 52 50 48 46 42 37 35 36 35 35 34 33 32
31 32 34 36 36 35 35 38 43 50 56 57 56 53 51 52 55 53 45 45 53 62 65 64 62 61 60 58 58 58 55 51 49 49 48 46 44 45 47 49 52 54 55 54 53 50 49 48 49 52 53 52 49 46 42 39 40 39 37 36 35 33 32
32 31 31 33 36 36 36 38 41 45 51 54 54 53 52 51 51 51 48 45 47 56 63 64 62 60 60 59 58 57 54 50 48 48 48 45 44 45 46 47 49 51 52 52 51 50 49 48 48 51 53 52 49 47 45 45 45 42 40 39 38 35 34
30 31 32 33 35 36 36 38 39 41 45 50 51 51 53 51 48 48 50 48 45 50 59 63 62 60 59 59 59 57 53 49 47 46 46 45 44 44 44 45 46 48 49 50 49 49 49 49 49 51 51 50 49 49 49 50 48 45 44 42 40 39 37
28 31 33 33 34 35 36 38 39 40 43 47 47 46 47 47 44 42 46 49 46 48 55 60 60 59 58 58 59 57 52 48 47 46 45 45 44 43 43 43 44 46 45 44 44 45 46 48 48 48 48 47 48 50 52 52 51 49 47 45 43 41 39
26 30 33 34 34 34 36 37 39 41 42 43 44 43 42 43 41 36 38 46 49 49 52 56 58 58 57 57 57 56 51 48 46 45 45 45 44 43 42 42 42 42 41 41 42 43 44 44 43 43 43 45 46 49 51 52 52 51 50 47 45 43 39
21 25 30 33 34 34 36 37 38 40 41 40 40 41 41 42 43 38 36 42 49 51 52 52 54 56 56 56 56 54 51 49 48 46 45 45 44 43 42 41 40 40 41 41 41 41 40 39 40 42 45 47 48 49 49 49 50 51 50 48 45 41 37
18 20 23 28 32 33 34 35 35 36 38 39 39 40 40 42 44 41 37 40 49 54 52 51 52 54 55 54 55 55 53 51 51 49 46 46 46 45 43 41 40 40 41 40 39 38 38 39 41 44 46 48 49 49 48 48 49 50 49 46 42 37 34
18 19 18 21 25 28 30 33 34 34 36 38 39 40 40 42 43 42 38 40 49 55 53 51 51 53 53 53 55 56 54 51 50 51 50 49 48 47 44 42 41 41 41 41 39 38 38 38 40 41 43 45 46 46 47 47 48 49 47 43 38 35 33
16 18 19 18 18 20 25 30 34 35 35 36 38 40 41 42 44 43 38 39 48 55 54 51 51 51 50 51 53 55 55 51 49 51 52 51 50 49 46 43 43 43 43 42 40 38 38 37 37 38 40 41 43 43 44 45 45 45 43 38 35 34 35
15 16 18 19 17 16 20 26 32 34 35 36 38 40 41 43 45 44 39 37 45 53 53 51 50 49 48 49 51 53 56 53 48 50 54 53 51 49 47 45 45 45 45 44 41 39 38 36 36 37 38 39 40 42 42 42 42 41 39 36 34 35 37
Wind_Direction
228 226 223 222 221 222 227 227 225 225 226 225 225 226 227 228 232 239 243 241 240 238 238 236 232 229 228 228 231 231 225 224 227 229 231 230 228 227 224 221 223 224 220 210 207 216 226 229 227 222 217 213 212 211 209 210 211 212 213 213 212 211 211
225 224 223 223 221 217 220 227 229 227 226 223 223 225 225 226 228 229 232 235 240 241 239 237 234 230 228 228 232 232 229 229 231 231 232 234 233 228 221 218 220 222 222 216 210 215 224 227 226 222 219 216 215 214 213 213 212 212 212 213 213 213 212
224 225 223 222 221 217 214 213 224 230 229 225 222 222 223 225 227 231 232 231 235 242 243 240 237 232 229 230 232 230 227 231 235 235 234 234 234 232 222 218 220 221 220 217 210 212 221 226 225 223 222 221 218 217 216 216 215 214 212 212 211 212 214
226 225 224 222 218 217 214 206 205 220 226 227 225 224 224 224 226 229 236 238 237 239 242 244 243 236 230 228 229 227 224 228 233 235 236 235 235 235 227 220 222 224 224 223 215 210 218 226 227 225 224 224 222 220 218 217 218 218 217 215 213 212 213
228 226 226 224 218 216 215 210 209 213 216 218 223 226 226 225 226 226 229 238 243 247 248 247 246 242 234 227 225 224 219 222 231 234 234 235 235 235 230 222 221 222 223 227 224 215 215 222 226 225 224 224 224 222 221 219 219 220 221 221 218 216 215
226 227 228 228 222 217 215 212 213 216 218 216 217 224 225 224 225 226 226 227 235 252 255 249 244 241 238 229 221 220 218 220 229 232 230 231 233 232 230 225 221 219 217 222 226 223 218 221 226 228 226 227 228 227 225 223 220 221 223 224 223 221 219
223 224 223 224 223 218 214 214 213 214 219 218 215 220 224 225 225 226 226 222 214 225 235 238 239 236 235 231 222 218 219 221 228 232 229 229 230 230 230 226 222 220 216 216 221 224 222 221 227 233 232 231 234 234 232 228 223 221 222 224 225 224 223
227 228 227 226 225 220 216 215 212 213 217 218 216 216 216 222 227 228 230 225 217 229 242 244 239 233 230 230 226 219 219 221 226 230 228 226 227 228 229 226 222 221 220 217 219 225 225 221 225 234 237 236 235 236 236 233 227 223 222 222 224 225 225
226 230 233 232 230 227 223 217 213 214 216 215 217 215 207 213 219 219 229 231 221 223 243 249 240 234 229 227 227 222 219 221 223 226 228 226 226 227 227 224 222 220 220 220 222 225 226 224 227 234 240 241 240 239 238 237 233 228 224 223 223 225 226
221 224 229 228 227 227 225 221 217 216 214 211 214 215 212 214 211 202 208 225 221 218 232 245 239 231 224 220 224 223 219 219 220 222 224 222 223 227 226 223 223 221 219 221 224 225 227 228 230 235 240 244 244 242 240 237 235 231 228 225 224 226 227
220 220 223 223 222 223 224 221 218 215 213 211 213 216 216 216 211 204 202 206 207 210 223 238 239 231 221 216 223 227 222 220 221 222 224 220 218 222 222 221 223 224 222 223 225 226 227 229 231 234 239 243 245 244 241 238 236 234 231 228 226 228 229
223 222 224 225 225 224 225 222 218 213 208 208 214 217 216 215 212 208 205 201 198 195 205 232 241 235 230 226 225 225 220 217 218 221 223 222 221 223 224 224 225 224 224 226 227 226 226 229 232 234 236 240 243 243 241 239 236 234 234 231 228 229 231
226 225 224 225 225 224 223 223 221 217 208 205 212 217 214 213 215 214 210 205 200 192 190 209 223 222 226 227 221 219 216 214 216 219 220 220 222 224 225 226 228 227 225 225 227 227 228 230 231 233 235 237 241 242 241 240 238 233 232 232 229 230 232
227 226 224 223 224 223 223 223 223 221 215 209 210 212 210 210 214 216 213 208 203 196 192 196 202 210 220 223 218 218 218 215 216 219 217 215 216 219 222 223 226 228 227 226 227 227 228 229 229 232 234 235 239 243 242 241 241 236 232 231 231 231 233
228 226 225 225 226 225 225 224 223 222 219 213 210 211 211 210 212 213 211 210 207 198 192 194 197 204 214 215 212 214 217 216 216 217 215 213 213 215 218 219 220 222 224 225 227 227 227 228 228 230 232 233 236 240 241 240 241 239 234 231 231 232 234
227 226 225 225 226 227 225 224 223 221 220 216 213 212 212 212 213 211 211 213 209 197 193 201 205 207 211 209 209 212 214 214 216 217 218 218 217 217 219 218 218 219 221 222 224 226 229 229 227 227 229 231 233 236 238 238 239 238 234 229 228 231 233
227 226 226 224 223 224 224 222 221 221 221 220 218 216 214 213 212 210 210 213 208 198 201 210 211 212 216 214 211 213 214 213 213 215 219 220 220 221 221 220 219 220 222 223 224 225 228 230 228 226 226 228 231 234 236 236 237 236 234 229 228 229 232
228 225 225 225 222 222 222 221 220 220 222 223 222 220 216 215 215 214 213 215 212 205 208 214 214 216 221 222 217 215 214 214 213 213 215 218 220 221 220 219 218 218 220 224 226 226 228 229 228 227 227 226 227 231 234 234 234 234 233 231 229 230 232
232 227 227 228 225 222 221 220 220 221 223 224 225 223 219 217 219 220 219 220 220 217 214 213 213 215 218 220 220 218 216 216 215 213 213 216 220 221 220 219 219 218 219 222 224 227 229 230 229 228 229 229 227 228 231 233 233 234 234 232 230 230 232
233 231 230 231 229 223 220 219 220 223 224 224 225 225 222 218 218 222 223 223 225 225 221 216 212 213 214 215 217 218 219 217 215 214 215 216 218 222 222 221 221 222 222 222 224 227 230 232 232 229 230 233 232 229 230 232 233 234 234 234 232 231 233
229 230 232 234 231 223 218 217 219 221 222 223 225 226 225 220 218 221 223 224 224 226 224 218 214 215 216 215 214 215 217 219 217 215 216 216 216 219 222 223 223 224 224 224 226 229 230 233 235 234 233 237 238 234 229 229 231 233 234 235 234 233 235
224 228 231 232 227 220 216 216 219 219 218 220 223 225 226 223 220 220 222 222 223 225 224 218 215 215 216 215 214 214 215 218 218 216 216 216 215 217 220 222 224 225 225 226 227 229 230 231 235 236 236 238 241 240 234 229 230 232 234 236 236 235 236
221 223 228 229 224 218 216 216 218 218 217 218 221 223 223 223 222 222 221 221 221 222 221 217 216 216 214 213 215 215 214 216 218 218 217 217 216 217 219 222 223 225 226 227 227 229 230 231 233 236 237 238 239 241 239 234 231 232 233 236 237 236 238
222 221 224 223 221 219 217 215 217 217 217 217 220 223 222 220 221 223 223 222 221 220 218 215 215 216 214 213 214 215 214 215 217 219 219 218 218 217 218 221 223 225 227 228 228 229 230 231 233 234 236 237 238 239 239 238 236 234 234 235 237 237 239
221 222 222 219 218 218 217 215 216 217 217 218 220 222 220 219 220 224 223 222 221 220 217 213 213 215 214 212 212 214 215 214 216 218 219 219 219 219 219 221 223 225 226 227 228 229 230 231 231 232 234 235 236 237 237 238 239 237 235 235 237 239 241
219 220 220 217 215 216 216 214 215 216 217 218 219 220 219 216 217 221 223 221 220 220 219 215 212 213 213 211 211 213 215 214 214 218 219 218 219 219 219 221 223 225 226 228 228 229 230 230 230 231 233 234 235 236 236 237 240 240 237 236 238 241 244
217 217 216 215 215 214 213 212 213 215 216 217 218 220 220 217 216 219 222 220 219 219 219 216 214 214 213 211 210 213 214 214 214 217 219 219 219 219 219 220 222 225 227 229 230 230 229 229 228 230 232 233 233 236 236 236 240 242 241 240 240 241 244
216 214 214 214 214 213 211 210 211 213 215 215 217 218 219 219 219 221 223 222 218 217 218 217 216 215 214 212 210 212 214 214 214 217 219 219 219 218 219 219 220 223 227 230 231 230 229 228 226 228 230 231 233 236 234 233 238 241 241 242 243 243 245
216 213 213 215 213 212 212 211 210 210 211 213 216 217 217 218 220 222 223 222 218 216 216 215 215 216 215 212 211 212 213 213 214 216 218 219 219 218 218 219 219 221 225 229 230 229 229 228 226 227 229 229 231 234 233 233 236 239 239 240 242 244 246
216 215 215 217 215 213 213 212 210 209 209 210 213 216 217 218 220 222 222 221 217 214 213 214 215 216 214 212 211 212 212 212 213 214 216 217 217 217 218 218 218 219 222 227 228 228 228 228 228 229 229 228 228 230 232 234 236 236 236 237 239 241 245
216 217 217 218 217 215 213 212 210 209 209 209 211 213 215 216 216 219 221 220 215 211 210 212 213 214 213 211 211 210 209 209 211 212 213 215 215 216 216 217 217 217 220 223 225 225 226 227 229 230 231 230 229 229 230 232 233 231 232 234 236 240 244
216 220 221 221 220 218 214 212 211 209 209 210 211 213 214 211 207 208 216 218 214 208 207 209 211 212 212 211 210 208 207 207 208 209 211 212 213 213 214 215 215 214 214 215 217 221 224 226 228 229 228 227 226 225 226 227 227 226 228 230 234 239 242
220 224 224 223 222 219 215 212 211 210 208 209 212 214 213 210 206 204 209 213 210 205 205 208 209 210 211 210 207 206 206 208 210 210 210 210 211 211 212 212 210 208 208 211 214 218 222 223 222 222 222 221 221 221 222 222 221 222 224 228 234 237 236
229 231 229 226 225 222 218 214 212 209 207 208 211 214 213 210 208 207 208 207 205 205 207 208 208 209 209 207 205 205 206 208 209 209 209 209 209 209 210 209 208 206 207 211 215 217 218 218 217 218 218 219 219 219 218 218 218 219 222 227 232 232 227
236 234 230 227 226 225 222 218 213 209 208 208 210 213 212 209 206 206 208 205 202 204 208 210 209 209 207 204 203 205 206 207 208 206 206 208 208 208 209 209 207 207 208 211 214 215 214 214 214 214 213 214 215 214 214 213 215 218 222 225 227 225 223
239 235 229 225 223 222 220 218 216 212 210 210 210 210 211 208 203 202 205 204 201 203 208 210 210 210 206 202 203 205 206 208 208 205 204 206 207 207 209 210 208 208 209 211 212 212 211 210 209 208 207 207 207 208 210 212 215 218 221 224 224 223 223
244 241 235 230 224 217 213 213 216 215 212 212 210 208 208 206 201 199 202 202 200 202 206 208 210 211 206 202 202 205 206 208 208 205 203 205 207 208 209 210 209 208 209 210 210 209 208 207 207 206 206 205 205 207 210 212 215 218 221 223 225 225 226
Height
5779 5784 5790 5793 5797 5801 5804 5806 5808 5811 5818 5823 5826 5827 5830 5833 5834 5834 5835 5836 5838 5840 5842 5845 5848 5852 5856 5857 5858 5861 5864 5866 5868 5869 5870 5873 5874 5877 5880 5883 5885 5886 5886 5886 5889 5894 5897 5898 5900 5901 5902 5904 5905 5907 5909 5911 5913 5915 5918 5920 5922 5924 5926
5773 5776 5780 5784 5789 5796 5800 5803 5806 5810 5813 5817 5820 5822 5824 5827 5828 5829 5832 5834 5835 5835 5837 5840 5843 5849 5853 5855 5857 5861 5864 5865 5865 5868 5870 5872 5873 5875 5880 5882 5882 5882 5884 5886 5888 5892 5895 5897 5899 5900 5901 5902 5903 5905 5907 5909 5912 5914 5916 5919 5921 5923 5925
5769 5771 5774 5777 5782 5788 5794 5800 5804 5805 5807 5809 5813 5815 5818 5822 5824 5826 5828 5831 5833 5833 5833 5836 5840 5846 5851 5854 5856 5860 5862 5863 5864 5866 5869 5871 5873 5874 5877 5880 5879 5879 5882 5884 5886 5890 5893 5895 5897 5899 5900 5901 5903 5904 5906 5908 5910 5912 5914 5916 5918 5920 5923
5765 5768 5768 5771 5776 5782 5789 5795 5797 5798 5801 5805 5808 5811 5814 5818 5821 5824 5827 5828 5830 5831 5832 5834 5838 5842 5847 5851 5854 5857 5860 5861 5862 5864 5866 5869 5871 5872 5874 5878 5880 5881 5884 5885 5885 5887 5891 5893 5895 5897 5899 5900 5902 5903 5905 5907 5909 5910 5912 5914 5916 5919 5921
5759 5762 5763 5766 5772 5779 5784 5788 5789 5791 5794 5799 5804 5806 5809 5814 5818 5821 5825 5826 5829 5831 5830 5832 5836 5840 5843 5848 5852 5855 5857 5858 5858 5861 5865 5867 5869 5870 5872 5876 5878 5879 5882 5885 5886 5887 5888 5890 5893 5895 5897 5899 5900 5902 5903 5905 5907 5909 5911 5914 5916 5918 5919
5753 5758 5761 5763 5768 5773 5779 5782 5784 5787 5791 5795 5799 5801 5803 5809 5813 5817 5821 5825 5830 5832 5829 5828 5832 5837 5840 5845 5849 5852 5855 5856 5855 5857 5862 5864 5865 5867 5869 5873 5877 5878 5879 5882 5885 5887 5887 5887 5890 5894 5896 5898 5899 5901 5903 5904 5906 5908 5910 5912 5915 5917 5918
5748 5752 5755 5757 5759 5765 5771 5775 5779 5783 5787 5791 5795 5797 5801 5806 5809 5813 5816 5820 5827 5830 5826 5824 5827 5833 5837 5841 5845 5849 5852 5853 5853 5855 5860 5861 5863 5865 5867 5870 5875 5877 5879 5880 5882 5885 5886 5886 5889 5892 5895 5897 5899 5900 5902 5903 5905 5907 5908 5911 5913 5915 5917
5744 5746 5748 5750 5753 5756 5761 5766 5772 5776 5780 5786 5790 5795 5801 5805 5807 5810 5812 5814 5822 5825 5821 5821 5825 5829 5834 5838 5842 5846 5848 5849 5851 5853 5856 5858 5861 5862 5863 5867 5872 5875 5877 5878 5879 5882 5884 5885 5888 5890 5893 5896 5898 5899 5900 5902 5903 5905 5906 5908 5910 5913 5915
5739 5743 5745 5747 5751 5752 5754 5760 5766 5769 5773 5780 5786 5791 5796 5798 5801 5806 5809 5811 5818 5821 5817 5817 5821 5825 5831 5835 5838 5842 5844 5846 5848 5851 5853 5856 5858 5858 5860 5865 5869 5871 5874 5876 5878 5881 5882 5883 5886 5889 5891 5893 5896 5898 5899 5901 5902 5903 5905 5907 5909 5911 5913
5733 5737 5738 5740 5743 5744 5747 5753 5759 5763 5768 5774 5781 5785 5787 5788 5792 5799 5803 5807 5814 5818 5816 5815 5816 5821 5828 5832 5834 5838 5841 5843 5845 5848 5850 5853 5854 5854 5857 5861 5864 5867 5871 5874 5877 5879 5880 5881 5884 5887 5889 5891 5893 5896 5898 5899 5900 5901 5903 5905 5907 5909 5911
5726 5729 5728 5730 5734 5737 5741 5746 5752 5759 5763 5769 5775 5777 5778 5782 5788 5792 5796 5801 5806 5812 5815 5815 5814 5819 5826 5830 5833 5836 5838 5840 5842 5843 5845 5848 5850 5851 5853 5856 5859 5863 5867 5870 5873 5877 5878 5880 5882 5885 5887 5888 5890 5893 5895 5897 5899 5900 5901 5904 5906 5908 5909
5720 5723 5723 5726 5729 5732 5736 5739 5743 5748 5754 5761 5766 5767 5770 5777 5783 5786 5791 5796 5800 5805 5811 5813 5812 5817 5823 5825 5828 5830 5832 5834 5835 5837 5841 5845 5848 5850 5851 5854 5857 5860 5865 5868 5870 5873 5875 5877 5880 5883 5885 5886 5887 5890 5893 5894 5897 5898 5900 5902 5904 5906 5907
5712 5716 5718 5720 5721 5724 5728 5731 5734 5738 5743 5749 5753 5758 5764 5771 5775 5781 5788 5793 5797 5802 5807 5808 5808 5812 5815 5817 5821 5824 5826 5827 5828 5832 5838 5843 5846 5849 5851 5853 5855 5857 5862 5866 5868 5871 5873 5875 5877 5880 5882 5883 5885 5887 5890 5892 5894 5897 5898 5900 5902 5904 5906
5702 5706 5709 5712 5713 5717 5722 5725 5729 5733 5738 5742 5746 5751 5759 5764 5768 5775 5782 5787 5792 5796 5798 5799 5801 5805 5808 5812 5817 5821 5822 5824 5826 5830 5836 5841 5844 5846 5848 5850 5852 5855 5858 5862 5865 5867 5870 5872 5874 5877 5879 5881 5883 5885 5888 5890 5892 5894 5897 5899 5900 5902 5904
5693 5698 5703 5706 5709 5713 5718 5721 5725 5729 5734 5738 5742 5746 5751 5756 5761 5768 5775 5779 5784 5788 5790 5792 5796 5800 5804 5809 5812 5814 5817 5820 5823 5826 5831 5833 5835 5836 5839 5841 5845 5848 5852 5857 5861 5864 5866 5869 5872 5874 5876 5879 5881 5882 5885 5887 5890 5892 5894 5897 5899 5901 5902
5685 5692 5698 5702 5706 5710 5711 5715 5719 5724 5728 5733 5738 5741 5744 5750 5756 5762 5766 5769 5776 5783 5785 5787 5792 5795 5798 5803 5806 5809 5813 5817 5820 5823 5826 5828 5829 5831 5833 5836 5840 5844 5848 5852 5857 5860 5863 5866 5869 5872 5874 5876 5878 5880 5882 5885 5887 5889 5891 5894 5897 5898 5900
5682 5688 5691 5695 5700 5700 5700 5707 5715 5720 5723 5728 5732 5736 5741 5747 5751 5755 5758 5762 5770 5778 5778 5781 5788 5791 5793 5799 5802 5805 5810 5814 5816 5819 5822 5824 5827 5830 5833 5837 5840 5843 5845 5850 5853 5857 5860 5863 5866 5869 5872 5874 5876 5878 5880 5882 5884 5886 5888 5891 5894 5895 5897
5676 5680 5683 5686 5688 5688 5693 5705 5712 5716 5719 5723 5727 5731 5737 5741 5745 5750 5754 5757 5763 5767 5768 5775 5784 5788 5792 5797 5800 5803 5808 5810 5811 5813 5816 5820 5823 5826 5830 5834 5837 5839 5843 5847 5851 5854 5856 5859 5862 5866 5868 5871 5874 5875 5877 5879 5881 5883 5885 5888 5890 5893 5895
5670 5674 5677 5677 5677 5683 5693 5703 5710 5713 5716 5719 5722 5726 5731 5736 5741 5745 5747 5750 5754 5757 5762 5772 5781 5785 5789 5794 5798 5800 5802 5804 5806 5809 5811 5814 5818 5822 5826 5829 5832 5836 5840 5844 5848 5851 5853 5855 5859 5862 5864 5868 5871 5872 5873 5876 5878 5881 5883 5885 5887 5890 5892
5666 5669 5671 5670 5673 5683 5694 5703 5707 5708 5709 5712 5715 5719 5724 5730 5735 5738 5741 5746 5749 5752 5759 5769 5778 5782 5786 5790 5794 5795 5795 5797 5803 5806 5809 5812 5816 5820 5823 5826 5829 5833 5837 5841 5845 5848 5851 5853 5855 5857 5861 5864 5867 5870 5872 5874 5876 5878 5880 5882 5884 5887 5890
5662 5665 5667 5669 5674 5684 5693 5697 5696 5696 5701 5707 5710 5713 5719 5725 5730 5733 5736 5741 5743 5746 5754 5765 5773 5778 5781 5786 5788 5787 5789 5795 5801 5804 5807 5811 5814 5817 5819 5822 5826 5830 5834 5838 5842 5845 5849 5852 5853 5855 5859 5861 5863 5866 5869 5871 5873 5875 5877 5879 5882 5885 5888
5659 5661 5663 5665 5669 5678 5684 5685 5685 5689 5696 5700 5703 5707 5713 5718 5724 5727 5729 5733 5736 5741 5749 5759 5766 5770 5774 5779 5781 5782 5787 5794 5798 5801 5805 5808 5811 5813 5816 5819 5823 5827 5830 5834 5838 5843 5847 5849 5851 5854 5857 5859 5861 5863 5865 5868 5871 5873 5875 5877 5880 5883 5886
5655 5657 5658 5661 5665 5670 5674 5677 5681 5687 5691 5694 5698 5702 5704 5709 5715 5720 5723 5727 5731 5736 5745 5754 5759 5762 5767 5772 5775 5779 5786 5790 5793 5798 5802 5804 5807 5810 5812 5815 5819 5822 5826 5831 5836 5840 5843 5847 5850 5853 5855 5856 5858 5860 5863 5865 5868 5870 5873 5876 5879 5881 5883
5651 5653 5655 5658 5661 5664 5668 5672 5678 5682 5686 5690 5693 5694 5697 5704 5711 5714 5719 5724 5727 5733 5741 5748 5752 5755 5762 5767 5772 5778 5783 5787 5790 5794 5797 5800 5803 5805 5808 5812 5815 5819 5823 5828 5833 5836 5839 5844 5848 5850 5851 5853 5855 5858 5860 5862 5865 5868 5872 5875 5876 5878 5880
5647 5650 5652 5655 5658 5660 5663 5667 5672 5676 5680 5684 5685 5688 5694 5701 5706 5708 5712 5718 5723 5729 5736 5742 5747 5753 5758 5764 5770 5774 5778 5782 5786 5790 5793 5796 5799 5801 5805 5808 5812 5816 5820 5825 5829 5832 5836 5840 5844 5846 5848 5849 5852 5856 5858 5860 5863 5867 5870 5872 5873 5875 5877
5645 5647 5649 5652 5654 5655 5658 5662 5667 5671 5675 5679 5682 5686 5690 5695 5698 5700 5704 5709 5716 5723 5730 5737 5744 5749 5754 5760 5766 5769 5773 5778 5782 5785 5788 5792 5794 5797 5801 5804 5808 5812 5816 5820 5825 5828 5832 5836 5840 5842 5844 5846 5849 5853 5855 5858 5862 5864 5866 5868 5870 5872 5874
5642 5643 5645 5647 5648 5651 5655 5659 5663 5666 5669 5673 5677 5681 5685 5688 5692 5695 5699 5704 5710 5717 5725 5734 5741 5745 5750 5756 5761 5764 5768 5774 5778 5781 5784 5788 5791 5794 5797 5800 5803 5808 5812 5816 5820 5824 5828 5832 5836 5838 5840 5842 5846 5850 5854 5857 5859 5859 5861 5864 5867 5869 5871
5639 5640 5642 5643 5646 5649 5652 5655 5657 5659 5663 5668 5673 5677 5680 5683 5687 5692 5696 5701 5706 5713 5722 5730 5736 5741 5746 5751 5756 5759 5764 5770 5774 5777 5780 5784 5787 5790 5793 5796 5800 5804 5808 5812 5816 5820 5824 5828 5831 5833 5835 5839 5843 5848 5852 5854 5853 5854 5858 5861 5863 5866 5868
5636 5638 5639 5641 5643 5645 5646 5649 5651 5655 5660 5665 5670 5673 5676 5680 5684 5689 5693 5698 5703 5710 5718 5726 5731 5736 5741 5747 5751 5755 5760 5766 5770 5773 5777 5781 5784 5787 5789 5793 5796 5800 5804 5807 5811 5815 5819 5822 5826 5829 5831 5836 5841 5845 5847 5848 5848 5851 5855 5857 5860 5862 5865
5633 5635 5636 5637 5639 5640 5642 5645 5649 5653 5657 5661 5665 5669 5673 5677 5681 5685 5690 5695 5701 5707 5714 5721 5727 5731 5736 5742 5747 5751 5757 5762 5765 5769 5773 5777 5780 5783 5786 5790 5793 5797 5800 5803 5806 5810 5814 5817 5821 5824 5827 5832 5837 5839 5841 5842 5844 5848 5851 5854 5857 5859 5861
5631 5632 5633 5634 5636 5637 5640 5643 5646 5649 5652 5657 5662 5666 5670 5674 5679 5682 5686 5692 5698 5704 5710 5717 5722 5727 5732 5737 5742 5748 5753 5757 5761 5766 5770 5773 5777 5780 5783 5786 5789 5793 5796 5799 5802 5806 5809 5812 5816 5819 5823 5828 5831 5834 5836 5838 5841 5844 5848 5851 5853 5856 5858
5628 5629 5630 5631 5633 5635 5637 5639 5642 5646 5650 5655 5660 5664 5667 5671 5675 5679 5683 5688 5695 5701 5707 5712 5718 5723 5728 5733 5739 5745 5750 5754 5758 5762 5766 5769 5773 5777 5780 5783 5786 5790 5793 5796 5799 5802 5806 5809 5812 5816 5820 5823 5826 5829 5831 5834 5836 5841 5844 5847 5850 5852 5855
5626 5627 5628 5629 5631 5633 5635 5637 5639 5644 5649 5655 5659 5661 5664 5668 5672 5676 5679 5684 5691 5698 5703 5708 5713 5718 5724 5729 5736 5742 5748 5751 5755 5759 5763 5766 5770 5774 5777 5780 5783 5787 5790 5793 5796 5800 5803 5806 5809 5812 5815 5818 5820 5823 5827 5829 5833 5837 5841 5843 5846 5848 5851
5625 5626 5627 5628 5629 5631 5633 5636 5639 5643 5648 5652 5655 5657 5661 5665 5670 5673 5677 5681 5687 5693 5699 5704 5710 5715 5720 5726 5732 5737 5742 5746 5750 5755 5759 5763 5766 5770 5773 5777 5780 5784 5787 5790 5794 5797 5800 5803 5805 5808 5810 5813 5816 5820 5823 5826 5830 5833 5837 5839 5842 5844 5847
5624 5625 5625 5627 5628 5630 5632 5635 5638 5641 5645 5648 5651 5654 5658 5662 5667 5671 5674 5678 5683 5689 5695 5701 5706 5711 5716 5723 5728 5732 5736 5740 5745 5750 5754 5758 5762 5766 5770 5773 5777 5781 5784 5787 5791 5793 5796 5798 5801 5804 5807 5809 5812 5815 5819 5822 5826 5830 5833 5835 5838 5841 5843
5622 5623 5624 5625 5627 5629 5631 5633 5635 5638 5641 5644 5647 5650 5654 5659 5664 5669 5672 5675 5680 5685 5691 5697 5703 5707 5713 5719 5724 5728 5733 5737 5741 5746 5751 5755 5758 5762 5766 5770 5773 5777 5781 5784 5786 5790 5792 5795 5797 5801 5803 5806 5809 5812 5815 5819 5823 5827 5830 5832 5835 5837 5839
5621 5621 5622 5623 5625 5627 5629 5630 5632 5635 5637 5640 5643 5647 5651 5656 5661 5666 5670 5673 5677 5682 5688 5694 5699 5704 5709 5715 5719 5723 5728 5732 5736 5741 5746 5751 5755 5759 5763 5766 5769 5773 5776 5779 5782 5786 5788 5791 5794 5797 5800 5803 5806 5810 5813 5817 5820 5823 5826 5829 5831 5833 5835